Location: ?????
(55.8833°N, 37.6500°E)
Time: 08:53:14
(UTC+00:00)

NOSS 2-3 (D) - Pass Details

Date: 27 February 2020
Orbit: 583 x 1629 km, 63.4° (Epoch: 25 March)

Event Time Altitude Azimuth Distance (km) Brightness Sun altitude
Rises 15:30:52 0° 200° (SSW) 2,839 7.4 -5.4°
Reaches altitude 10° 15:33:05 10° 192° (SSW) 1,993 6.4 -5.7°
Maximum altitude 15:37:09 37° 124° (SE) 1,064 4.4 -6.2°
Drops below altitude 10° 15:42:02 10° 58° (ENE) 2,390 6.0 -6.9°
Enters shadow 15:43:50 - 53° (NE) 3,078 6.6 -7.2°
